This is the latest recevied weather packets stored in our database for station/object NU3S-7. If no packets are shown the sender has not sent any weather packets the latest 10 day(s).
| Time | Temp. | Humidity | Pressure | Rain* | Wind** | Luminosity | Snow |
|---|---|---|---|---|---|---|---|
| 1777117304 | 15° C | 98% | 1007.2 hPa | 0.25 mm | - | - | - |
| 1777116704 | 15° C | 97% | 1007.3 hPa | 0.25 mm | - | - | - |
| 1777116311 | 15.56° C | 97% | 1007.1 hPa | 0 mm | - | - | - |
| 1777116103 | 15.56° C | 97% | 1007.1 hPa | 0 mm | - | - | - |
| 1777115503 | 15.56° C | 96% | 1007 hPa | 0 mm | - | - | - |
| 1777114902 | 15.56° C | 96% | 1006.9 hPa | 0 mm | - | - | - |
| 1777114302 | 15.56° C | 96% | 1006.9 hPa | 0 mm | - | - | - |
| 1777113702 | 15.56° C | 96% | 1006.8 hPa | 0 mm | - | - | - |
| 1777113102 | 15.56° C | 96% | 1006.8 hPa | 0 mm | - | - | - |
| 1777112501 | 15.56° C | 96% | 1006.6 hPa | 0 mm | - | - | - |
| 1777111901 | 15.56° C | 95% | 1006.4 hPa | 0 mm | - | - | - |
| 1777111300 | 15.56° C | 95% | 1006.4 hPa | 0 mm | - | - | - |
| 1777110700 | 15.56° C | 95% | 1006.3 hPa | 0 mm | - | - | - |
| 1777110099 | 15.56° C | 95% | 1006.5 hPa | 0 mm | - | - | - |
| 1777109499 | 15.56° C | 95% | 1006.5 hPa | 0 mm | - | - | - |
| 1777108899 | 15.56° C | 95% | 1006.5 hPa | 0 mm | - | - | - |
| 1777108298 | 16.11° C | 94% | 1006.5 hPa | 0 mm | - | - | - |
| 1777107698 | 16.11° C | 94% | 1006.4 hPa | 0 mm | - | - | - |
| 1777107098 | 16.11° C | 93% | 1006.3 hPa | 0 mm | - | - | - |
| 1777105897 | 16.11° C | 92% | 1006.3 hPa | 0 mm | - | - | - |
| 1777105329 | 16.67° C | 92% | 1006.3 hPa | 0 mm | - | - | - |
| 1777105296 | 16.67° C | 92% | 1006.3 hPa | 0 mm | - | - | - |
| 1777104696 | 17.22° C | 91% | 1006.1 hPa | 0 mm | - | - | - |
| 1777104096 | 17.22° C | 92% | 1006.2 hPa | 0 mm | - | - | - |
| 1777103495 | 16.67° C | 92% | 1006.1 hPa | 0 mm | - | - | - |
* Rain since midnight (hover to see other rain measurements)
** Current wind speed in m/s (hover to see current wind gust speed)